SCP
0 0 0 0 0 0 0 0 0 0 0 0 0 0 0 0 0 0 0 0 0 0
0 0 0 0 0 0 0 0 0 0 0 0 0 0 0 0 0 0 0 0 0 0
0 0 0 0 0 0 0 0 0 0 0 0 0 0 0 0 0 0 0 0 0 0
0 0 0 0 0 0 0 0 0 0 0 0 0 0 0 0 0 0 0 0 0 0
0 0 0 0 0 0 0 0 0 0 0 0 0 0 0 0 0 0 0 0 0 0
0 0 0 0 0 0 0 0 0 0 0 0 0 0 0 0 0 0 0 0 0 0
0 0 0 0 0 0 0 0 0 0 0 0 0 0 0 0 0 0 0 0 0 0
0 0 0 0 0 0 0 0 0 0 0 0 0 0 0 0 0 0 0 0 0 0
0 0 0 0 0 0 0 0 0 0 0 0 0 0 0 0 0 0 0 0 0 0
0 0 0 0 0 0 0 0 0 0 0 0 0 0 0 0 0 0 0 0 0 0
0 0 0 0 0 0 0 0 0 0 0 0 0 0 0 0 0 0 0 0 0 0
0 0 0 0 0 0 0 0 0 0 0 0 0 0 0 0 0 0 0 0 0 0
0 0 0 0 0 0 0 0 0 0 0 0 0 0 0 0 0 0 0 0 0 0
0 0 0 0 0 0 0 0 0 0 0 0 0 0 0 0 0 0 0 0 0 0
Wind_Speed_500mb
22 18 14 11 11 13 17 19 21 22 25 26 28 31 36 41 44 47 50 52 55 57
17 12 8 7 9 12 18 21 26 29 31 35 38 42 46 48 53 57 61 64 66 67
12 8 4 6 10 14 18 22 26 31 34 38 42 46 49 53 56 60 64 69 73 76
10 3 3 8 14 18 23 27 31 34 39 42 45 49 54 60 65 69 73 75 77 79
10 4 6 11 16 22 27 33 37 40 43 47 51 55 61 67 73 77 80 81 81 82
14 9 11 16 20 24 31 38 41 44 49 54 58 63 69 75 79 82 82 82 81 81
21 19 19 21 23 30 38 43 47 51 55 60 64 70 76 78 79 80 80 79 77 76
30 25 25 26 30 37 44 47 49 53 57 63 70 72 72 73 76 77 78 77 76 73
33 32 30 31 36 42 47 51 53 56 63 70 71 68 70 73 75 75 75 75 70 66
36 35 37 38 40 45 50 53 56 62 70 71 69 70 73 74 76 75 71 69 67 64
40 42 43 42 43 47 51 54 61 68 70 70 69 71 73 75 75 71 67 61 57 57
46 46 45 43 44 48 52 57 66 69 69 70 70 69 71 74 69 63 57 51 51 55
48 46 44 43 45 48 52 61 66 68 67 66 67 64 66 64 57 53 51 56 58 62
46 43 42 42 46 48 55 60 63 65 64 61 60 59 58 55 44 49 61 64 68 69
Wind_Direction_500mb
122 115 97 72 59 17 3 359 350 347 343 336 332 329 329 329 328 327 326 324 322 319
131 115 91 53 13 354 340 338 333 332 330 327 328 327 327 325 324 323 323 321 319 318
142 132 88 6 345 331 323 321 322 323 325 324 325 323 322 321 320 318 316 315 313 312
165 153 346 338 322 318 318 320 318 317 317 318 319 319 320 320 319 317 315 313 310 307
195 224 309 310 312 315 317 316 316 315 316 317 318 318 318 317 315 314 312 310 307 304
221 247 282 296 304 311 314 314 314 314 315 317 318 319 318 316 314 312 310 309 306 303
238 248 271 291 301 314 318 317 315 314 315 316 317 317 316 315 313 311 309 306 303 301
238 256 273 286 299 312 315 313 310 310 312 314 316 317 315 314 313 310 307 304 302 300
248 262 270 282 293 303 309 310 310 311 314 316 318 318 316 316 314 310 307 305 302 301
252 262 268 277 285 298 305 308 309 313 316 319 320 319 317 316 313 309 306 303 302 303
254 260 265 275 286 297 304 307 311 315 317 317 318 318 316 314 312 308 305 304 302 302
255 258 266 276 288 299 303 307 311 314 316 317 318 318 315 315 312 308 306 306 308 306
255 260 267 279 291 298 301 307 312 314 315 317 317 318 315 315 313 310 312 316 314 312
255 261 271 283 291 294 301 307 311 313 314 316 316 316 317 317 316 317 317 312 314 316
Wind_Speed_850mb
22 18 14 11 11 13 17 19 21 22 25 26 28 31 36 41 44 47 50 52 55 57
17 12 8 7 9 12 18 21 26 29 31 35 38 42 46 48 53 57 61 64 66 67
12 8 4 6 10 14 18 22 26 31 34 38 42 46 49 53 56 60 64 69 73 76
10 3 3 8 14 18 23 27 31 34 39 42 45 49 54 60 65 69 73 75 77 79
10 4 6 11 16 22 27 33 37 40 43 47 51 55 61 67 73 77 80 81 81 82
14 9 11 16 20 24 31 38 41 44 49 54 58 63 69 75 79 82 82 82 81 81
21 19 19 21 23 30 38 43 47 51 55 60 64 70 76 78 79 80 80 79 77 76
30 25 25 26 30 37 44 47 49 53 57 63 70 72 72 73 76 77 78 77 76 73
33 32 30 31 36 42 47 51 53 56 63 70 71 68 70 73 75 75 75 75 70 66
36 35 37 38 40 45 50 53 56 62 70 71 69 70 73 74 76 75 71 69 67 64
40 42 43 42 43 47 51 54 61 68 70 70 69 71 73 75 75 71 67 61 57 57
46 46 45 43 44 48 52 57 66 69 69 70 70 69 71 74 69 63 57 51 51 55
48 46 44 43 45 48 52 61 66 68 67 66 67 64 66 64 57 53 51 56 58 62
46 43 42 42 46 48 55 60 63 65 64 61 60 59 58 55 44 49 61 64 68 69
Wind_Direction_850mb
122 115 97 72 59 17 3 359 350 347 343 336 332 329 329 329 328 327 326 324 322 319
131 115 91 53 13 354 340 338 333 332 330 327 328 327 327 325 324 323 323 321 319 318
142 132 88 6 345 331 323 321 322 323 325 324 325 323 322 321 320 318 316 315 313 312
165 153 346 338 322 318 318 320 318 317 317 318 319 319 320 320 319 317 315 313 310 307
195 224 309 310 312 315 317 316 316 315 316 317 318 318 318 317 315 314 312 310 307 304
221 247 282 296 304 311 314 314 314 314 315 317 318 319 318 316 314 312 310 309 306 303
238 248 271 291 301 314 318 317 315 314 315 316 317 317 316 315 313 311 309 306 303 301
238 256 273 286 299 312 315 313 310 310 312 314 316 317 315 314 313 310 307 304 302 300
248 262 270 282 293 303 309 310 310 311 314 316 318 318 316 316 314 310 307 305 302 301
252 262 268 277 285 298 305 308 309 313 316 319 320 319 317 316 313 309 306 303 302 303
254 260 265 275 286 297 304 307 311 315 317 317 318 318 316 314 312 308 305 304 302 302
255 258 266 276 288 299 303 307 311 314 316 317 318 318 315 315 312 308 306 306 308 306
255 260 267 279 291 298 301 307 312 314 315 317 317 318 315 315 313 310 312 316 314 312
255 261 271 283 291 294 301 307 311 313 314 316 316 316 317 317 316 317 317 312 314 316